www.pogodaiklimat.ru

Погода и климат >> Архив погоды >> Россия >> Липецкая область >> Конь-Колодезь


ПОГОДА в Конь-Колодезе

  • Прогноз погоды в Конь-Колодезе
  • Монитор погоды в Конь-Колодезе

АРХИВ ПОГОДЫ в Конь-Колодезе

Время (UTC), дата Ветер
(напр.,м/с)
 
Видим.   Явления Облачность Т
(С)
Тd
(С)
f
(%)
Тe
(С)
Тes
(С)
Комфортность P
(гПа)
Po
(гПа)
Тmin
(С)
Tmax
(С)
R
(мм)
R24
(мм)
S
(см)
09 16.08 В 3 10 км 9/3 1000 м
[Sc Ac trans Ci ing]
+27.3 +11.4 37 +28 +33 жарко 1007.2 991.7
12 16.08 ЮВ 5
{10}
10 км 3/1 1000 м
[Sc Ci fib]
+30.0 +9.9 29 +30 +34 жарко 1006.5 991.1
15 16.08 ЮВ 4 10 км 9/1 1000 м
[Sc Ac trans Ci fib]
+29.9 +6.8 23 +29 +29 жарко 1006.4 991.0 +31.0
18 16.08 ЮВ 3 10 км 9/6 600 м
[Sc Ac trans Ci fib]
+24.5 +10.0 40 +25 +25 комфорт 1007.7 992.0
21 16.08 В 3 10 км 9/4 600 м
[Sc Ac trans Ci fib]
+22.2 +11.1 49 +24 +24 комфорт 1007.2 991.4
00 17.08 В 1 10 км 9/9 600 м
[Sc]
+20.5 +12.2 59 +24 +24 комфорт 1008.0 992.0
03 17.08 ЮЗ 1 10 км 9/8 600 м
[Sc Ac trans]
+19.2 +13.4 69 +22 +22 комфорт 1007.1 991.2 +19.0
06 17.08 Ю 2 10 км слаб. ливневой дождь 10/10 600 м
[Cb cap]
+21.4 +14.8 66 +24 +24 комфорт 1007.9 992.0
09 17.08 Ю 2 4000 м слаб. ливневой дождь 10/10 600 м
[Cb cap]
+19.6 +18.7 95 +23 +23 комфорт 1008.5 992.6
12 17.08 Ю 1 4000 м ливневой дождь 10/10 300 м
[Cb cap]
+19.8 +18.5 92 +24 +24 комфорт 1008.3 992.5
15 17.08 ЮВ 3 4000 м слаб. ливневой дождь 10/10 300 м
[Cb cap]
+19.6 +18.8 95 +22 +22 комфорт 1007.5 991.6 +21.5 13
18 17.08 штиль 0 10 км {ливн. осадки} 9/9 600 м
[Cb calv]
+18.4 +17.1 92 +19 +19 1009.4 993.3
21 17.08 В 1 4000 м дымка 3/3 1000 м
[Sc]
+18.0 +17.2 95 +19 +19 1007.7 991.7
00 18.08 Ю 1 4000 м дымка 9/9 600 м
[Cb calv]
+18.7 +18.1 96 +21 +21 комфорт 1008.1 992.2
03 18.08 Ю 1 4000 м дымка 9/9 600 м
[Cb calv]
+18.3 +17.5 95 +20 +20 1008.9 992.9 +17.5 2
06 18.08 Ю 2 10 км 8/8 600 м
[Cb calv]
+18.9 +15.8 82 +21 +23 комфорт 1010.8 994.7
09 18.08 ЮЗ 3 10 км 8/8 600 м
[Cb calv]
+21.1 +15.6 71 +24 +26 комфорт 1010.5 994.6
12 18.08 З 2 10 км 8/6 600 м
[Cb calv Ci fib]
+22.7 +15.0 62 +27 +29 душно 1013.2 997.3
15 18.08 Ю 2 10 км 8/3 600 м
[Cb calv Ci fib]
+23.3 +15.1 60 +27 +28 душно 1011.9 996.1 +23.9
18 18.08 С 2 10 км 6/3 1000 м
[Sc Ci fib]
+19.0 +16.0 83 +21 +21 комфорт 1014.8 998.7
21 18.08 СЗ 1 4000 м дымка 8/3 1000 м
[Sc Ci fib]
+16.0 +15.0 94 +17 +17 1014.7 998.4
00 19.08 СЗ 1 4000 м дымка 8/0
[Ci fib]
+14.8 +13.7 93 +15 +15 1015.4 999.1
03 19.08 СЗ 1 2000 м дымка 9/5 600 м
[Sc Ci fib]
+13.1 +12.5 96 +13 +13 1017.0 1000.6 +12.9
06 19.08 СЗ 1 20 км 5/1 600 м
[Sc Ac trans Ci fib]
+17.5 +14.6 83 +19 +22 1019.0 1002.7
09 19.08 СЗ 2 20 км 6/1 1000 м
[Cu hum Ac trans Ci fib]
+22.3 +14.1 60 +26 +34 жарко 1018.0 1002.1
12 19.08 СВ 1 20 км 3/1 1000 м
[Cu hum Ac trans Ci fib]
+25.5 +13.0 46 +27 +36 жарко 1018.5 1002.7
15 19.08 С 3 20 км 1/0
[Ac trans]
+25.5 +12.3 44 +27 +28 жарко 1018.5 1002.6 +26.5
18 19.08 штиль 0 10 км ясно +20.6 +14.9 70 +23 +23 комфорт 1021.4 1005.3
21 19.08 штиль 0 10 км ясно +16.9 +14.9 88 +17 +17 1020.6 1004.3
00 20.08 штиль 0 10 км дымка ясно +15.0 +14.0 94 +15 +15 1021.8 1005.3
03 20.08 С 1 4000 м дымка ясно +13.1 +12.5 96 +13 +13 1022.3 1005.8 +13.0
06 20.08 СВ 1 20 км ясно +22.0 +14.9 64 +25 +33 комфорт 1024.1 1008.0
09 20.08 С 2 10 км 8/8 1000 м
[Cu hum]
+25.4 +13.7 48 +28 +30 жарко 1022.1 1006.2
12 20.08 СВ 2 10 км 4/4 1000 м
[Cu hum]
+27.4 +13.0 41 +29 +34 жарко 1022.5 1006.7
15 20.08 СВ 2 10 км ясно +27.4 +11.5 37 +28 +29 жарко 1021.1 1005.3 +28.3
18 20.08 СВ 1 10 км 3/0
[Ci fib]
+21.2 +13.9 63 +24 +24 комфорт 1022.8 1006.7
21 20.08 штиль 0 10 км ясно +17.2 +14.0 81 +17 +17 1023.1 1006.8
00 21.08 штиль 0 4000 м дымка ясно +14.0 +12.9 93 +14 +14 1024.6 1008.0
03 21.08 штиль 0 4000 м дымка 3/0
[Ci fib]
+13.3 +12.4 94 +13 +13 1023.9 1007.4 +13.1
06 21.08 В 2 10 км ясно +22.0 +16.5 71 +26 +32 душно 1025.4 1009.3
09 21.08 В 2 10 км ясно +27.2 +15.6 49 +30 +43 душно 1023.3 1007.5
12 21.08 СВ 3 10 км ясно +29.4 +13.2 37 +31 +38 жарко 1022.4 1006.7
15 21.08 СВ 2 10 км ясно +29.1 +13.3 38 +31 +32 жарко 1020.9 1005.3 +29.7
18 21.08 СВ 2 10 км 2 балла +24.0 +15.7 60 +27 +27 жарко 1022.7 1006.7
21 21.08 штиль 0 10 км 3/0
[Ci fib]
+19.6 +14.9 74 +21 +21 комфорт 1021.4 1005.2
00 22.08 штиль 0 4000 м дымка 3/0
[Ci fib]
+16.7 +14.6 87 +17 +17 1021.6 1005.3
03 22.08 штиль 0 4000 м дымка ясно +15.0 +13.9 93 +15 +15 1021.5 1005.1 +14.4
06 22.08 штиль 0 10 км ясно +25.0 +15.9 57 +28 +37 жарко 1022.6 1006.7
09 22.08 З 1 20 км 3/3 1000 м
[Cu hum]
+28.4 +13.9 41 +30 +41 жарко 1020.2 1004.5
12 22.08 В 1 10 км 7 баллов +29.9 +14.0 38 +32 +35 жарко 1021.0 1005.3
15 22.08 СВ 2 10 км 8/3 1000 м
[Sc diur, vesp Ci fib]
+28.5 +15.3 45 +31 +32 душно 1019.3 1003.7 +30.6
18 22.08 СВ 1 10 км 7 баллов +24.0 +15.5 59 +27 +27 жарко 1021.3 1005.3
21 22.08 С 3 10 км 8/3 600 м
[Sc Ac trans Ci fib]
+22.0 +16.0 69 +26 +26 душно 1021.1 1005.0
00 23.08 С 3 10 км 9 баллов +18.1 +14.8 81 +18 +18 1024.3 1008.0
03 23.08 С 3 10 км 9/0
[Ac trans Ci fib]
+16.9 +13.7 81 +17 +17 1023.6 1007.3 +16.9

 

Местоположение метеостанции Конь-Колодезь (Липецкая область, Россия): широта 52.15 долгота 39.15 высота над уровнем моря 138 м.

В архиве по умолчанию представлена погода в Конь-Колодезе за последнюю неделю. Архивные данные за месяц целиком и за предыдущие месяцы, начиная с января 2011 года, Вы можете получить, выбрав интересующий диапазон дат из раскрывающегося списка и нажав кнопку "Ввод!".


*Определитесь, кто Вы:
робот инопланетянин человек

Внимание! Время в таблицах - всемирное. Для получения местного времени необходимо прибавить поправку, которая равна 3 ч.

Смотрите также архив погоды в соседних городах и на ближайших метеорологических станциях:

Погода в Воронеже (Воронежская область, Россия) (50 км)
Погода в Липецке (Липецкая область, Россия) (66 км)
Погода в Ельце (Липецкая область, Россия) (68 км)
Погода в Нижнедевицке (Воронежская область, Россия) (85 км)
Погода в Ливнах (Орловская область, Россия) (110 км)
Погода в Анне (Воронежская область, Россия) (115 км)
Погода в Совхозе им. Ленина (Тамбовская область, Россия) (117 км)
Погода в Льве Толстом (Липецкая область, Россия) (121 км)
Погода в Мичуринске (Тамбовская область, Россия) (121 км)
Погода в Старом Осколе (Белгородская область, Россия) (129 км)

Пояснения к столбцам:

Ветер - указаны скорость ветра в м/с - средняя за 10 мин, порывы в срок и между сроками (в фигурных скобках) и направление, откуда дует ветер: С - северный, СВ - северо-восточный, В - восточный, ЮВ - юго-восточный, Ю - южный, ЮЗ - юго-западный, З - западный, СЗ - северо-западный.
Видимость - горизонтальная дальность видимости в метрах или километрах. При видимости от 1 до 10 км при отсутствии осадков обычно наблюдается дымка, при ухудшении видимости до 1 км и менее - туман. В сухую погоду видимость может ухудшаться дымом, пылью или мглою.
Явления - указаны атмосферные явления, наблюдавшиеся в срок или в последний час перед сроком; фигурными скобками обозначены явления, наблюдавшиеся между сроками (за 1-3 часа до срока); квадратными скобками обозначены град или гололедные отложения с указанием их диаметра в мм.
Облачность - указаны через наклонную черту общая и нижняя облачность в баллах и высота нижней границы облаков в метрах; квадратными скобками обозначены формы облаков: Ci - перистые, Cs - перисто-слоистые, Cc - перисто-кучевые, Ac - высококучевые, As - высокослоистые, Sc - слоисто-кучевые, Ns - слоисто-дождевые, Cu - кучевые, Cb - кучево-дождевые. Подробнее классификацию облаков см. в Атласе облаков (PDF).
T - Температура воздуха - температура, измеренная на высоте 2 м над землей.
Td - Температура точки росы - температура, при понижении до которой содержащийся в воздухе водяной пар достигнет насыщения.
f - Относительная влажность воздуха - влажноcть воздуха, измеренная на высоте 2 м над землей.
Te - Эффективная температура - температура, которую ощущает одетый по сезону человек в тени. Характеристика душности погоды. При расчете учитывается влияние влажности воздуха и скорости ветра на теплоощущения человека.
Tes - Эффективная температура на солнце - температура, которую ощущает человек, с поправкой на солнечный нагрев. Характеристика знойности погоды. Зависит от высоты солнца над горизонтом, облачности и скорости ветра. Ночью, в пасмурную погоду, а также при ветре 12 м/с и более поправка равна нулю.
P - Атмосферное давление - приведенное к уровню моря атмосферное давление.
Po - Атмосферное давление - измеренное на уровне метеостанции атмосферное давление.
Tmin - Минимальная температура - минимум температуры воздуха на высоте 2 м над землей.
Tmax - Максимальная температура - максимум температуры воздуха на высоте 2 м над землей.
R - Количество осадков - Количество выпавших осадков за период времени, мм. При наведении курсора мыши на число - период времени, за который выпало указанное количество осадков.
R24 - Количество осадков - Количество выпавших осадков за 24 часа, мм.
S - Снежный покров - Высота снежного покрова, см. При наведении курсора мыши на число - состояние снежного покрова и степень покрытия местности в баллах.